[[{"header":{"parameterUnit":"m.s-1","parameterCategory":1,"la1":30.2991,"la2":30.254,"lo1":-89.0895,"lo2":-89.0444,"dx":0.0017,"dy":0.0017,"nx":28,"ny":28,"refTime":"2022-11-07T03:00:00:Z","depth":0,"parameterNumber":2,"parameterNumberName":"U-component_of_WINDS"},"data":[0,0,0,0,0,0,0,0,0,0,0,0,0,0,0,0,0,0,0,0,0,0,0,0,0,0,0,0,0,0,0,0,0,0,0,0,0,0,0,0,0,0,0,0,0,0,0,0,0,0,0,0,0,0,0,0,0,0,-0.3858,-0.3859,0,-0.3966,-0.3967,-0.3968,-0.3986,-0.3985,-0.3984,-0.3983,-0.4098,-0.4102,-0.4106,0,0,0,0,0,0,0,0,0,0,0,0,0,-0.3673,-0.3676,-0.3858,-0.3859,-0.386,-0.3965,-0.3967,-0.3968,-0.3986,-0.3985,-0.3984,-0.3982,-0.4097,-0.4102,-0.4106,0,0,0,0,0,0,0,0,0,0,0,0,0,-0.3764,-0.3677,-0.3858,-0.3882,-0.3885,-0.3965,-0.3967,-0.3969,-0.3986,-0.3985,-0.3983,-0.3982,-0.4095,-0.4101,-0.4107,-0.4172,0,0,-0.4125,-0.4128,0,0,0,0,0,0,0,0,-0.3759,-0.3771,-0.3877,-0.388,-0.3884,-0.3961,-0.3944,-0.4037,-0.3986,-0.3948,-0.3983,-0.3981,-0.4054,-0.4063,-0.4087,-0.4177,-0.4182,-0.4126,-0.4129,-0.4132,-0.4133,0,0,0,0,0,0,0,-0.3752,-0.3766,-0.3901,-0.3878,-0.3883,-0.3889,-0.39,-0.3962,-0.4008,-0.3951,-0.3953,-0.3965,-0.4056,-0.4081,-0.4089,-0.4184,-0.4125,-0.4131,-0.4134,-0.4137,-0.4335,-0.4337,0,0,0,0,0,0,-0.3741,-0.3761,-0.3897,-0.3904,-0.3816,-0.3893,-0.3906,-0.3938,-0.4007,-0.4016,-0.3966,-0.3965,-0.4071,-0.4083,-0.4094,-0.4176,-0.4132,-0.4137,-0.4141,-0.4334,-0.4336,-0.4338,0,0,0,0,0,0,-0.3737,-0.3753,-0.3893,-0.3833,-0.3851,-0.3898,-0.3933,-0.394,-0.3966,-0.4018,-0.4027,-0.3983,-0.4071,-0.4085,-0.4152,-0.418,-0.414,-0.4145,-0.4332,-0.4334,-0.4337,-0.4339,0,0,0,0,0,0,-0.3732,-0.3751,-0.3775,-0.3833,-0.3854,-0.3948,-0.3935,-0.3944,-0.3975,-0.3975,-0.4036,-0.4045,-0.4071,-0.4143,-0.4158,-0.4187,-0.415,-0.4329,-0.4333,-0.4336,-0.4337,-0.4342,-0.4346,0,0,0,0,0,-0.3725,-0.3773,-0.3776,-0.3793,-0.3885,-0.395,-0.3962,-0.3989,-0.3977,-0.4003,-0.4037,-0.4043,-0.4174,-0.415,-0.4167,-0.4198,-0.4328,-0.4332,-0.4336,-0.4335,-0.4341,-0.4346,0,0,0,0,0,0,-0.3719,-0.3781,-0.3786,-0.3853,-0.3896,-0.3952,-0.3985,-0.3994,-0.4042,-0.404,-0.4073,-0.4087,-0.4153,-0.4182,-0.4154,-0.4266,-0.425,-0.4258,-0.4244,-0.425,-0.4254,-0.4247,-0.4155,0,0,0,0,0,-0.3724,-0.377,-0.3823,-0.3877,-0.3898,-0.3938,-0.3967,-0.3984,-0.4031,-0.4049,-0.4088,-0.4134,-0.4186,-0.4219,-0.427,-0.4341,-0.4356,-0.4371,-0.4375,-0.4378,-0.4385,-0.4427,-0.4435,-0.435,-0.435,-0.435,0,0,-0.3738,-0.3778,-0.3805,-0.3877,-0.3912,-0.3961,-0.3953,-0.4005,-0.4042,-0.4058,-0.4123,-0.4153,-0.4207,-0.4277,-0.431,-0.4304,-0.4411,-0.4383,-0.4386,-0.4391,-0.4432,-0.444,-0.4447,-0.4353,-0.4353,-0.4352,0,0,-0.3789,-0.3822,-0.3872,-0.3907,-0.396,-0.3986,-0.3998,-0.4053,-0.4074,-0.414,-0.4153,-0.4198,-0.4286,-0.4324,-0.4355,-0.442,-0.4429,-0.4435,-0.4459,-0.4499,-0.4506,-0.4512,-0.4537,-0.4545,-0.4441,-0.4441,-0.4442,0,-0.38,-0.3872,-0.3897,-0.3948,-0.398,-0.3995,-0.4047,-0.408,-0.4147,-0.417,-0.4161,-0.4273,-0.431,-0.439,-0.4405,-0.4429,-0.4446,-0.4429,-0.4502,-0.4509,-0.4515,-0.4539,-0.4548,-0.4442,-0.4442,-0.4442,-0.4442,0,-0.3884,-0.3933,-0.3968,-0.4031,-0.4066,-0.4118,-0.4152,-0.4186,-0.42,-0.4227,-0.4295,-0.434,-0.4401,-0.442,-0.4435,-0.4503,-0.4498,-0.4495,-0.4481,-0.4523,-0.4546,-0.4556,-0.4443,-0.4443,-0.4443,-0.4442,0,0,-0.3934,-0.4009,-0.4022,-0.4051,-0.411,-0.4151,-0.4203,-0.426,-0.4289,-0.4335,-0.4382,-0.4456,-0.4454,-0.4489,-0.4508,-0.4543,-0.4594,-0.4537,-0.4539,-0.4547,-0.4674,-0.4676,-0.4686,-0.4599,-0.4601,-0.4602,-0.467,0,-0.3992,-0.4085,-0.4109,-0.4189,-0.4236,-0.4251,-0.4297,-0.434,-0.4367,-0.4413,-0.4443,-0.4496,-0.4488,-0.451,-0.4545,-0.458,-0.462,-0.4575,-0.4645,-0.4647,-0.4633,-0.4698,-0.4701,-0.4763,-0.4679,-0.4681,-0.4682,0,-0.4073,-0.4119,-0.4203,-0.4257,-0.4278,-0.4318,-0.4374,-0.4416,-0.4466,-0.4483,-0.4522,-0.4538,-0.4595,-0.4576,-0.4657,-0.4626,-0.4656,-0.4678,-0.4681,-0.469,-0.4668,-0.4711,-0.4783,-0.4793,-0.4696,-0.4695,-0.4694,0,-0.4103,-0.4186,-0.4248,-0.4272,-0.4336,-0.4365,-0.4393,-0.444,-0.4474,-0.4522,-0.4545,-0.46,-0.4631,-0.4674,-0.4705,-0.4688,-0.4784,-0.4767,-0.4802,-0.4801,-0.4823,-0.4822,-0.4902,-0.4839,-0.4839,-0.4839,-0.4839,0,-0.4167,-0.4218,-0.4262,-0.43,-0.4358,-0.4386,-0.4444,-0.4473,-0.4515,-0.4561,-0.4577,-0.4619,-0.4657,-0.4705,-0.473,-0.4794,-0.4807,-0.4825,-0.4831,-0.4824,-0.4822,-0.4846,-0.4843,-0.4841,-0.4841,-0.484,-0.484,0,-0.4212,-0.4242,-0.431,-0.4365,-0.438,-0.4421,-0.4469,-0.4507,-0.4534,-0.4591,-0.4607,-0.465,-0.4708,-0.4743,-0.4816,-0.4832,-0.4904,-0.4908,-0.4887,-0.489,-0.4924,-0.4921,-0.5024,-0.504,-0.4964,-0.4965,-0.4966,0,-0.4251,-0.429,-0.4349,-0.4379,-0.4408,-0.4457,-0.4491,-0.452,-0.4555,-0.4614,-0.4646,-0.4704,-0.4752,-0.4844,-0.4884,-0.494,-0.4947,-0.4979,-0.4956,-0.4948,-0.4949,-0.4947,-0.4952,-0.4983,-0.4984,-0.4985,-0.4985,0,-0.4318,-0.4332,-0.4378,-0.4431,-0.4471,-0.4514,-0.4558,-0.4582,-0.462,-0.4658,-0.4716,-0.4754,-0.4828,-0.4886,-0.4946,-0.4978,-0.4989,-0.4992,-0.5003,-0.4997,-0.4984,-0.4994,-0.49,-0.499,-0.4989,-0.4989,-0.4989,-0.4988,-0.4363,-0.4399,-0.4446,-0.4498,-0.4533,-0.4574,-0.4612,-0.4644,-0.4693,-0.4754,-0.4769,-0.4831,-0.4881,-0.4962,-0.4995,-0.5045,-0.504,-0.5056,-0.506,-0.5064,-0.5066,-0.4975,-0.5056,-0.5055,-0.5055,-0.5055,-0.5055,0,-0.4432,-0.4463,-0.451,-0.457,-0.4612,-0.4616,-0.4664,-0.4699,-0.4753,-0.4797,-0.4844,-0.4912,-0.4969,-0.5012,-0.5071,-0.5103,-0.511,-0.5118,-0.5116,-0.5124,-0.5066,-0.5051,-0.5111,-0.5111,-0.5111,-0.5111,-0.5111,-0.5111,-0.4473,-0.4535,-0.4554,-0.4635,-0.4666,-0.4725,-0.4752,-0.479,-0.4826,-0.49,-0.4947,-0.4974,-0.5019,-0.5081,-0.5135,-0.5146,-0.5168,-0.5175,-0.5188,-0.5134,-0.5128,-0.5122,-0.5108,-0.5179,-0.518,-0.5242,-0.5243,-0.5243]},{"header":{"parameterUnit":"m.s-1","parameterCategory":1,"la1":30.2991,"la2":30.254,"lo1":-89.0895,"lo2":-89.0444,"dx":0.0017,"dy":0.0017,"nx":28,"ny":28,"refTime":"2022-11-07T03:00:00:Z","depth":0,"parameterNumber":3,"parameterNumberName":"V-component_of_WINDS"},"data":[0,0,0,0,0,0,0,0,0,0,0,0,0,0,0,0,0,0,0,0,0,0,0,0,0,0,0,0,0,0,0,0,0,0,0,0,0,0,0,0,0,0,0,0,0,0,0,0,0,0,0,0,0,0,0,0,0,0,-2.4129,-2.413,0,-2.419,-2.4191,-2.4192,-2.4161,-2.4159,-2.4158,-2.4156,-2.4216,-2.4219,-2.4222,0,0,0,0,0,0,0,0,0,0,0,0,0,-2.3984,-2.3987,-2.4129,-2.413,-2.4131,-2.419,-2.4191,-2.4192,-2.4161,-2.4159,-2.4157,-2.4156,-2.4215,-2.4218,-2.4222,0,0,0,0,0,0,0,0,0,0,0,0,0,-2.4047,-2.3988,-2.4129,-2.4123,-2.4123,-2.419,-2.4191,-2.4192,-2.4162,-2.4159,-2.4157,-2.4155,-2.4213,-2.4218,-2.4222,-2.4299,0,0,-2.4236,-2.4238,0,0,0,0,0,0,0,0,-2.4043,-2.4052,-2.4123,-2.4123,-2.4123,-2.4166,-2.4162,-2.4228,-2.4162,-2.4147,-2.4156,-2.4153,-2.4201,-2.4206,-2.4223,-2.4301,-2.4304,-2.4237,-2.424,-2.4242,-2.4243,0,0,0,0,0,0,0,-2.4039,-2.4049,-2.4153,-2.4124,-2.4124,-2.4116,-2.4122,-2.4174,-2.4186,-2.4148,-2.4146,-2.4154,-2.42,-2.4218,-2.4224,-2.4305,-2.4237,-2.4241,-2.4244,-2.4245,-2.445,-2.4453,0,0,0,0,0,0,-2.4035,-2.4046,-2.4151,-2.4155,-2.4077,-2.4121,-2.4128,-2.4154,-2.4186,-2.4188,-2.4156,-2.4152,-2.4212,-2.4219,-2.4226,-2.4319,-2.4242,-2.4246,-2.4249,-2.4448,-2.4451,-2.4454,0,0,0,0,0,0,-2.4032,-2.4045,-2.4149,-2.41,-2.4113,-2.4126,-2.4156,-2.4157,-2.4175,-2.4192,-2.4193,-2.4172,-2.421,-2.4219,-2.4281,-2.432,-2.4248,-2.4252,-2.4445,-2.4449,-2.4453,-2.4504,0,0,0,0,0,0,-2.4028,-2.4044,-2.4073,-2.4101,-2.4115,-2.4204,-2.4158,-2.416,-2.4183,-2.4179,-2.4207,-2.421,-2.4209,-2.4275,-2.4286,-2.4325,-2.4256,-2.4441,-2.4446,-2.4451,-2.4498,-2.4509,-2.4518,0,0,0,0,0,-2.4023,-2.4084,-2.4075,-2.4088,-2.4152,-2.4206,-2.4214,-2.4213,-2.4187,-2.4216,-2.4227,-2.4209,-2.4314,-2.4281,-2.4294,-2.4335,-2.4439,-2.4445,-2.4451,-2.4494,-2.4507,-2.4517,0,0,0,0,0,0,-2.4059,-2.4088,-2.4078,-2.415,-2.4176,-2.4201,-2.4238,-2.4226,-2.426,-2.4255,-2.4251,-2.4257,-2.4322,-2.4334,-2.4297,-2.4411,-2.4372,-2.4381,-2.4401,-2.4413,-2.4422,-2.4418,-2.426,0,0,0,0,0,-2.4076,-2.4118,-2.414,-2.4201,-2.4215,-2.4225,-2.4248,-2.4245,-2.4272,-2.4282,-2.4298,-2.4324,-2.4363,-2.4388,-2.4425,-2.45,-2.4506,-2.4534,-2.4544,-2.4552,-2.456,-2.4602,-2.4615,-2.4474,-2.4474,-2.4474,0,0,-2.411,-2.4131,-2.4157,-2.4209,-2.4229,-2.4273,-2.4234,-2.4281,-2.4314,-2.4289,-2.4349,-2.4362,-2.439,-2.446,-2.4491,-2.4472,-2.46,-2.4559,-2.4566,-2.4569,-2.4609,-2.4623,-2.4635,-2.4478,-2.4477,-2.4477,0,0,-2.4195,-2.4215,-2.4269,-2.429,-2.4322,-2.4328,-2.4341,-2.4368,-2.4376,-2.4437,-2.442,-2.4458,-2.4525,-2.4546,-2.4566,-2.4661,-2.4646,-2.4673,-2.4724,-2.4765,-2.4776,-2.4786,-2.4821,-2.4834,-2.4681,-2.4681,-2.4681,0,-2.4233,-2.4299,-2.4298,-2.4347,-2.4371,-2.4353,-2.4408,-2.4428,-2.4469,-2.4486,-2.4464,-2.455,-2.4567,-2.4642,-2.4666,-2.4682,-2.4697,-2.467,-2.4775,-2.4784,-2.4794,-2.4827,-2.484,-2.4684,-2.4684,-2.4683,-2.4683,0,-2.4345,-2.4391,-2.4431,-2.4474,-2.4502,-2.4554,-2.456,-2.4589,-2.4584,-2.4592,-2.4654,-2.4675,-2.4717,-2.4734,-2.4729,-2.4809,-2.4797,-2.4775,-2.4736,-2.481,-2.4842,-2.4855,-2.4689,-2.4688,-2.4687,-2.4686,0,0,-2.4454,-2.4497,-2.4512,-2.4532,-2.4566,-2.4601,-2.4652,-2.4694,-2.4719,-2.4749,-2.4792,-2.485,-2.4831,-2.4853,-2.485,-2.4886,-2.4962,-2.486,-2.4861,-2.488,-2.5053,-2.507,-2.5085,-2.4952,-2.4955,-2.4957,-2.5051,0,-2.4542,-2.4634,-2.4635,-2.4718,-2.4762,-2.4745,-2.479,-2.4816,-2.4826,-2.4863,-2.4873,-2.4915,-2.4885,-2.4899,-2.4934,-2.4946,-2.4997,-2.4939,-2.4993,-2.4995,-2.4987,-2.5102,-2.5119,-2.5208,-2.5064,-2.5066,-2.5067,0,-2.4657,-2.4693,-2.4782,-2.4812,-2.483,-2.487,-2.491,-2.4945,-2.4975,-2.4979,-2.5005,-2.4997,-2.505,-2.5009,-2.5081,-2.5041,-2.5063,-2.5073,-2.5076,-2.5082,-2.5036,-2.5111,-2.5236,-2.525,-2.5086,-2.5085,-2.5083,0,-2.473,-2.4799,-2.4862,-2.4879,-2.4915,-2.4944,-2.496,-2.4987,-2.5013,-2.5047,-2.5064,-2.5103,-2.5125,-2.5155,-2.5158,-2.5128,-2.5231,-2.519,-2.5237,-2.5237,-2.526,-2.5258,-2.5391,-2.5272,-2.5272,-2.5272,-2.5272,0,-2.4829,-2.4884,-2.4895,-2.4934,-2.4995,-2.4996,-2.5057,-2.507,-2.5095,-2.5135,-2.5123,-2.5161,-2.5162,-2.5201,-2.5204,-2.5264,-2.5273,-2.5279,-2.5279,-2.528,-2.528,-2.5295,-2.529,-2.5275,-2.5275,-2.5274,-2.5273,0,-2.492,-2.4929,-2.4997,-2.5026,-2.5035,-2.5079,-2.5104,-2.5141,-2.515,-2.5202,-2.5214,-2.5227,-2.5273,-2.5279,-2.5332,-2.5333,-2.5406,-2.5399,-2.5397,-2.5397,-2.5443,-2.5439,-2.559,-2.5611,-2.5478,-2.548,-2.5481,0,-2.4983,-2.5025,-2.506,-2.5087,-2.5106,-2.5149,-2.5176,-2.5179,-2.5207,-2.5245,-2.5277,-2.5322,-2.5358,-2.5432,-2.5446,-2.5486,-2.5481,-2.5531,-2.5487,-2.5488,-2.5483,-2.5481,-2.5486,-2.554,-2.5542,-2.5543,-2.5544,0,-2.5094,-2.5098,-2.5137,-2.518,-2.5213,-2.5246,-2.5277,-2.53,-2.5306,-2.5339,-2.5387,-2.5415,-2.547,-2.5515,-2.5555,-2.5571,-2.5559,-2.5558,-2.5571,-2.5573,-2.5571,-2.5574,-2.5422,-2.5554,-2.5553,-2.5552,-2.5552,-2.5551,-2.5174,-2.5212,-2.5243,-2.5288,-2.5313,-2.5343,-2.5379,-2.5394,-2.5434,-2.548,-2.5479,-2.5531,-2.556,-2.5614,-2.5633,-2.5674,-2.5657,-2.5676,-2.568,-2.5685,-2.5691,-2.5564,-2.5681,-2.568,-2.568,-2.568,-2.568,0,-2.5286,-2.5306,-2.5348,-2.5393,-2.5429,-2.5416,-2.545,-2.5481,-2.5528,-2.5556,-2.5593,-2.5648,-2.5692,-2.571,-2.5753,-2.5783,-2.5778,-2.5794,-2.5792,-2.5797,-2.5702,-2.5688,-2.5797,-2.5797,-2.5797,-2.5797,-2.5797,-2.5797,-2.5348,-2.5412,-2.542,-2.5496,-2.5514,-2.5567,-2.5588,-2.5616,-2.5639,-2.5702,-2.5739,-2.5752,-2.5776,-2.5822,-2.5861,-2.5866,-2.5882,-2.5901,-2.5903,-2.5815,-2.5803,-2.5792,-2.5778,-2.5904,-2.5904,-2.5994,-2.5994,-2.5995]}]]